Location: Bas Lanzent
(48.1360°N, 3.5871°W)
Time: 16:05:29
(UTC+00:00)

Cosmos 2233 Rocket - Pass Details

Date: 18 February 2020
Orbit: 954 x 989 km, 82.9° (Epoch: 29 March)

Event Time Altitude Azimuth Distance (km) Brightness Sun altitude
Rises 06:39:04 0° 350° (N) 3,681 6.8 -7.0°
Reaches altitude 10° 06:41:34 10° 349° (N) 2,735 6.1 -6.6°
Maximum altitude 06:47:51 80° 263° (W) 1,001 4.0 -5.5°
Drops below altitude 10° 06:54:08 10° 178° (S) 2,737 6.6 -4.5°
Sets 06:56:38 0° 177° (S) 3,684 7.2 -4.1°
